Sanford, NC

4:40 AM EST on January 18, 2017 (GMT -0500)
Raleigh Executive Jetport

Weather History for KTTA - November, 2012

Change the Weather History Date:

Monday, November 26, 2012

  Actual Average (KHRJ) Record (KHRJ)
Temperature  
Mean Temperature 45 °F -  
Max Temperature 66 °F 61 °F 78 °F (1979)
Min Temperature 24 °F 35 °F 19 °F (1970)
Degree Days  
Heating Degree Days 20    
Moisture  
Dew Point 25 °F    
Average Humidity 58    
Maximum Humidity 93    
Minimum Humidity 17    
Precipitation  
Precipitation 0.00 in - - ()
Sea Level Pressure  
Sea Level Pressure 30.15 in    
Wind  
Wind Speed 0 mph (South)    
Max Wind Speed 7 mph    
Max Gust Speed -    
Visibility 10 miles    
Events      
Averages and records for this station are not official NWS values.
T = Trace of Precipitation, MM = Missing Value Source: NWS Daily Summary

Daily Weather History Graph

Daily Weather History Graph

Search for Another Location

Airport or City:

Trip Planner

Search our weather history database for the weather conditions in past years. The results will help you decide how hot, cold, wet, or windy it might be!

Date:

Astronomy

Nov. 26, 2012 Rise Set
Actual Time 7:03 AM EST 5:04 PM EST
Civil Twilight 6:35 AM EST 5:32 PM EST
Nautical Twilight 6:04 AM EST 6:03 PM EST
Astronomical Twilight 5:33 AM EST 6:34 PM EST
Moon 3:53 PM EST (11/26) 5:14 AM EST (11/26)
Length of Visible Light 10h 56m
Length of Day
10h 01m
Waxing Gibbous, 97% of the Moon is Illuminated
Nov 26
Waxing Gibbous
Nov 28
Full
Dec 6
Last Quarter
Dec 13
New
Dec 20
First Quarter

Hourly Weather History & Observations

Time (EST) Temp. Windchill Dew Point Humidity Pressure Visibility Wind Dir Wind Speed Gust Speed Precip Events Conditions
12:15 AM 30.2 °F - 23.0 °F 75% 30.10 in 10.0 mi Calm Calm - N/A   Clear
12:35 AM 30.2 °F - 23.0 °F 75% 30.10 in 10.0 mi Calm Calm - N/A   Clear
1:15 AM 30.2 °F - 24.8 °F 80% 30.10 in 10.0 mi Calm Calm - N/A   Clear
1:35 AM 28.4 °F - 23.0 °F 80% 30.10 in 10.0 mi Calm Calm - N/A   Clear
1:55 AM 28.4 °F - 23.0 °F 80% 30.10 in 10.0 mi Calm Calm - N/A   Clear
2:15 AM 28.4 °F - 23.0 °F 80% 30.10 in 10.0 mi Calm Calm - N/A   Clear
2:35 AM 28.4 °F - 23.0 °F 80% 30.10 in 10.0 mi Calm Calm - N/A   Clear
2:55 AM 28.4 °F - 23.0 °F 80% 30.10 in 10.0 mi Calm Calm - N/A   Clear
3:15 AM 26.6 °F - 23.0 °F 86% 30.10 in 10.0 mi Calm Calm - N/A   Clear
3:35 AM 26.6 °F - 23.0 °F 86% 30.10 in 10.0 mi Calm Calm - N/A   Clear
3:55 AM 28.4 °F - 23.0 °F 80% 30.11 in 10.0 mi Calm Calm - N/A   Clear
4:15 AM 26.6 °F - 23.0 °F 86% 30.12 in 10.0 mi Calm Calm - N/A   Clear
4:35 AM 26.6 °F - 23.0 °F 86% 30.12 in 10.0 mi Calm Calm - N/A   Clear
4:55 AM 26.6 °F - 23.0 °F 86% 30.12 in 10.0 mi Calm Calm - N/A   Clear
5:15 AM 24.8 °F 20.5 °F 21.2 °F 86% 30.13 in 10.0 mi South 3.5 mph - N/A   Clear
5:35 AM 26.6 °F - 23.0 °F 86% 30.13 in 10.0 mi Calm Calm - N/A   Clear
5:55 AM 26.6 °F - 23.0 °F 86% 30.14 in 10.0 mi Calm Calm - N/A   Clear
6:15 AM 26.6 °F - 23.0 °F 86% 30.14 in 10.0 mi Calm Calm - N/A   Clear
6:35 AM 26.6 °F - 23.0 °F 86% 30.14 in 10.0 mi Calm Calm - N/A   Clear
7:15 AM 24.8 °F - 23.0 °F 93% 30.15 in 10.0 mi Calm Calm - N/A   Clear
7:35 AM 24.8 °F - 23.0 °F 93% 30.16 in 10.0 mi Calm Calm - N/A   Clear
7:55 AM 26.6 °F - 23.0 °F 86% 30.17 in 10.0 mi Calm Calm - N/A   Clear
8:15 AM 28.4 °F - 26.6 °F 93% 30.18 in 10.0 mi Calm Calm - N/A   Clear
8:35 AM 32.0 °F - 28.4 °F 87% 30.19 in 10.0 mi Calm Calm - N/A   Clear
8:55 AM - - - N/A% - - North - - N/A   Unknown
9:15 AM 37.4 °F - 28.4 °F 70% 30.20 in 10.0 mi Calm Calm - N/A   Clear
9:35 AM 42.8 °F - 26.6 °F 53% 30.20 in 10.0 mi Calm Calm - N/A   Clear
9:55 AM 44.6 °F - 26.6 °F 49% 30.20 in 10.0 mi Calm Calm - N/A   Clear
10:15 AM 46.4 °F - 26.6 °F 46% 30.21 in 10.0 mi Calm Calm - N/A   Clear
10:35 AM 50.0 °F - 26.6 °F 40% 30.21 in 10.0 mi Calm Calm - N/A   Clear
11:15 AM 55.6 °F - 24.4 °F 30% 30.20 in 10.0 mi Calm Calm - N/A   Clear
11:35 AM 57.2 °F - 23.9 °F 28% 30.19 in 10.0 mi Calm Calm - N/A   Clear
11:55 AM 59.2 °F - 24.3 °F 26% 30.19 in 10.0 mi Calm Calm - N/A   Clear
12:15 PM 61.0 °F - 24.3 °F 25% 30.18 in 10.0 mi Calm Calm - N/A   Clear
12:35 PM 62.1 °F - 23.9 °F 23% 30.17 in 10.0 mi Calm Calm - N/A   Clear
12:55 PM 63.7 °F - 23.7 °F 22% 30.16 in 10.0 mi SSW 3.5 mph - N/A   Clear
1:15 PM 64.0 °F - 22.6 °F 21% 30.16 in 10.0 mi Calm Calm - N/A   Clear
1:35 PM 64.4 °F - 22.3 °F 20% 30.15 in 7.0 mi Calm Calm - N/A   Clear
1:55 PM 65.7 °F - 21.2 °F 18% 30.14 in 10.0 mi South 5.8 mph - N/A   Clear
2:15 PM 65.5 °F - 20.5 °F 18% 30.14 in 10.0 mi Calm Calm - N/A   Clear
2:35 PM 66.2 °F - 20.5 °F 17% 30.14 in 10.0 mi SSW 4.6 mph - N/A   Clear
2:55 PM 66.4 °F - 21.4 °F 18% 30.14 in 10.0 mi South 4.6 mph - N/A   Clear
3:15 PM 66.2 °F - 22.1 °F 19% 30.14 in 10.0 mi South 6.9 mph - N/A   Clear
3:35 PM 65.8 °F - 23.0 °F 20% 30.13 in 10.0 mi South 5.8 mph - N/A   Clear
3:55 PM 65.1 °F - 23.7 °F 21% 30.14 in 10.0 mi SSE 5.8 mph - N/A   Clear
4:15 PM 64.4 °F - 25.5 °F 23% 30.14 in 10.0 mi South 3.5 mph - N/A   Clear
4:35 PM 62.2 °F - 24.6 °F 24% 30.14 in 10.0 mi South 3.5 mph - N/A   Clear
4:55 PM 60.6 °F - 24.3 °F 25% 30.15 in 10.0 mi Calm Calm - N/A   Clear
5:15 PM 55.8 °F - 27.0 °F 33% 30.15 in 10.0 mi Calm Calm - N/A   Clear
5:35 PM 53.4 °F - 27.1 °F 36% 30.16 in 10.0 mi Calm Calm - N/A   Clear
5:55 PM 51.3 °F - 26.6 °F 38% 30.17 in 10.0 mi Calm Calm - N/A   Clear
6:15 PM 49.1 °F - 26.4 °F 41% 30.17 in 10.0 mi Calm Calm - N/A   Clear
6:35 PM 45.1 °F - 27.7 °F 50% 30.17 in 10.0 mi Calm Calm - N/A   Clear
6:55 PM 46.4 °F - 28.2 °F 49% 30.17 in 10.0 mi Calm Calm - N/A   Clear
7:15 PM 44.6 °F - 27.5 °F 51% 30.18 in 10.0 mi Calm Calm - N/A   Clear
7:35 PM 42.3 °F - 28.4 °F 58% 30.18 in 10.0 mi Calm Calm - N/A   Clear
7:55 PM 42.3 °F - 28.4 °F 58% 30.18 in 10.0 mi Calm Calm - N/A   Clear
8:15 PM 39.9 °F - 28.2 °F 63% 30.17 in 10.0 mi Calm Calm - N/A   Clear
8:35 PM 39.2 °F - 28.6 °F 66% 30.17 in 10.0 mi Calm Calm - N/A   Clear
8:55 PM 38.8 °F - 28.4 °F 66% 30.17 in 10.0 mi Calm Calm - N/A   Clear
9:15 PM 38.3 °F - 28.4 °F 68% 30.19 in 10.0 mi Calm Calm - N/A   Clear
9:35 PM 36.7 °F - 28.0 °F 71% 30.18 in 10.0 mi Calm Calm - N/A   Clear
9:55 PM 36.5 °F - 28.0 °F 71% 30.18 in 10.0 mi Calm Calm - N/A   Clear
10:15 PM 36.3 °F - 28.0 °F 72% 30.18 in 10.0 mi Calm Calm - N/A   Clear
10:35 PM 35.2 °F - 27.9 °F 74% 30.19 in 10.0 mi Calm Calm - N/A   Clear
10:55 PM 34.9 °F - 27.3 °F 74% 30.18 in 10.0 mi Calm Calm - N/A   Clear
11:15 PM 35.1 °F - 27.3 °F 73% 30.18 in 10.0 mi Calm Calm - N/A   Clear
11:35 PM 34.2 °F - 27.5 °F 77% 30.17 in 10.0 mi Calm Calm - N/A   Clear
11:55 PM 33.8 °F - 27.5 °F 78% 30.17 in 10.0 mi Calm Calm - N/A   Clear